Find STARLINK-37835

NORAD ID: 799500945 Int'l Des: 2026-130Y Constellation: starlink operational

現在のビュー

3D地球を読み込み中...

About STARLINK-37835

STARLINK-37835 (NORAD 799500945) is a starlink constellation satellite launched Jun 7, 2026

STARLINK-37835について

説明を読み込み中...

次回通過

Passes for default location (London). Set your location on the main map for personalized predictions.

高度履歴

Loading altitude history...

軌道要素

1 99999C 2026130Y 26163.13381943 .00543340 00000-0 804410-4 0 1632
2 99999 97.2791 182.8530 0011599 271.9156 247.4568 16.04517338 10
Epoch: Jun 12, 2026 • Age: 6 hours